FENGYUN 1C DEB

Satellite information

Favourite Embed

Satellite Type and Status

DEBRISIN ORBIT

Key statistics

Satellite FENGYUN 1C DEB at a glance.

Uptime

9658

Days in orbit

Revolutions

≈ 14.2

Per day

Orbit

SSO

Sun Synchronous Orbit

Inclination

98.6

Latest

Satellite identification and parameters

Extended collection of information and parameters for FENGYUN 1C DEB.

Object identification

Identified? True

Debris? True

Object name: FENGYUN 1C DEB

International designator: 1999-025DLP

Object number (NORAD): 35135

Object ID (CCSDS): 35135

Country: PEOPLES REPUBLIC OF CHINA (PRC)

Current information (Y/N): Y

RCS size: SMALL

Orbital parameters

Period: 101.241 minutes

Inclination: 98.5676 deg

SMA: 7195.579 km

Apoapsis: 877.32 km

Periapsis: 757.568 km

RAAN: 298.7341 deg

Eccentricy: 0.00832119

Argument of periapsis: 93.9909 deg

Mean anomaly: 267.0787 deg

Mean motion: 14.22342307 rev/day

Mean motion (dot): 0.00001356 rev/day2

B* drag term: 0.0006067053 1/REarth

Two-line elements (TLE)

Creation date: Oct. 15, 2025, 6:23 p.m.

Reference frame: TEME

Reference center: EARTH

Epoch: Oct. 15, 2025, 7:04 a.m. UTC

TLE line 0: 0 FENGYUN 1C DEB

TLE line 1: 1 35135U 99025DLP 25288.29483244 .00001356 00000-0 60671-3 0 9991

TLE line 2: 2 35135 98.5676 298.7341 0083212 93.9909 267.0787 14.22342307869939

Live tracking on map

Real-time ground track for satellite FENGYUN 1C DEB.

In-orbit conjunctions

A list of the most updated potential collisions computed for object FENGYUN 1C DEB.

Target Orbit TCA Probability of collision Miss distance Type
THOR ABLESTAR DEB * LEO 2025-05-15 22:05:10 0.0001176145 84.0 (m) DEBRIS
COSMOS 773 LEO 2024-12-24 10:42:42 0.0001716925 498.0 (m) PAYLOAD
COSMOS 1275 DEB LEO 2024-11-09 05:07:06 0.0004561912 209.0 (m) DEBRIS

Associated space launch

Chinese polar orbiting meteorological satellite

FENGYUN 1C DEB was lifted into orbit during the mission ‘Long March 4B | Feng Yun 1C’, on board a Long March 4B space rocket.

The launch took place on May 10, 1999, 1:33 a.m. from Launch Complex 7.

For more information about the launch, click the button.

Launch to space Long March 4B | Feng Yun 1C
Long March 4B | Feng Yun 1C

Agency: N/A

Status: Launch Successful

Launch date: May 10, 1999, 1:33 a.m. UTC

Rocket: Long March 4B

Launch pad: Launch Complex 7

Location: Taiyuan Satellite Launch Center, People's Republic of China

...

Latest news about this satellite

There are no fresh news available about this satellite. Check back as we update our databases every day.


Newsletter sign-up

Weekly statistics, charts and insights to help you stay on top of the space industry.